{"data":{"norad_id":51627,"epoch":"2026-09-19T00:02:37.739616Z","epoch_age_seconds":155143,"freshness":"FRESH","line1":"1 51627U 22012F   26262.00182569  .00000004  00000+0 -23698-4 0  9993","line2":"2 51627  87.9199 347.2353 0001953 102.7041 257.4309 13.17648508226054","mean_motion":13.17648508,"eccentricity":0.0001953,"inclination_deg":87.9199,"raan_deg":347.2353,"arg_perigee_deg":102.7041,"mean_anomaly_deg":257.4309,"bstar":-2.3698e-5,"rev_number":22605,"period_min":109.28559409108,"perigee_km":1192.2363619875,"apogee_km":1195.1939274352,"semimajor_km":7571.8521447114,"source":"CELESTRAK","updated_at":"2026-09-20T09:00:44.708601Z"}}